owner,sensor,date,latitude,longitude,air_temperature,qcFlag 
DISL,ioos:station:DISL:KATA:1,2013-07-01T00:00:00Z,30.2583,-88.2131,30.63,1111122 
DISL,ioos:station:DISL:KATA:1,2013-07-01T00:30:00Z,30.2583,-88.2131,30.8,1111122 
DISL,ioos:station:DISL:KATA:1,2013-07-01T01:00:00Z,30.2583,-88.2131,30.66,1111122 
DISL,ioos:station:DISL:KATA:1,2013-07-01T01:30:00Z,30.2583,-88.2131,30.56,1111122 
DISL,ioos:station:DISL:KATA:1,2013-07-01T02:00:00Z,30.2583,-88.2131,30.57,1111122 
DISL,ioos:station:DISL:KATA:1,2013-07-01T02:30:00Z,30.2583,-88.2131,30.47,1111122 
DISL,ioos:station:DISL:KATA:1,2013-07-01T03:00:00Z,30.2583,-88.2131,29.79,1111122 
DISL,ioos:station:DISL:KATA:1,2013-07-01T03:30:00Z,30.2583,-88.2131,28.94,1111122 
DISL,ioos:station:DISL:KATA:1,2013-07-01T04:00:00Z,30.2583,-88.2131,28.57,1111122 
DISL,ioos:station:DISL:KATA:1,2013-07-01T04:30:00Z,30.2583,-88.2131,28.06,1111122 
DISL,ioos:station:DISL:KATA:1,2013-07-01T05:00:00Z,30.2583,-88.2131,27.92,1111122 
DISL,ioos:station:DISL:KATA:1,2013-07-01T05:30:00Z,30.2583,-88.2131,27.83,1111122 
DISL,ioos:station:DISL:KATA:1,2013-07-01T06:00:00Z,30.2583,-88.2131,27.42,1111122 
DISL,ioos:station:DISL:KATA:1,2013-07-01T06:30:00Z,30.2583,-88.2131,27.29,1111122 
DISL,ioos:station:DISL:KATA:1,2013-07-01T07:00:00Z,30.2583,-88.2131,26.92,1111122 
DISL,ioos:station:DISL:KATA:1,2013-07-01T07:30:00Z,30.2583,-88.2131,26.98,1111122 
DISL,ioos:station:DISL:KATA:1,2013-07-01T08:00:00Z,30.2583,-88.2131,26.41,1111122 
DISL,ioos:station:DISL:KATA:1,2013-07-01T08:30:00Z,30.2583,-88.2131,26.14,1111122 
DISL,ioos:station:DISL:KATA:1,2013-07-01T09:00:00Z,30.2583,-88.2131,26.01,1111122 
DISL,ioos:station:DISL:KATA:1,2013-07-01T09:30:00Z,30.2583,-88.2131,25.4,1111122 
DISL,ioos:station:DISL:KATA:1,2013-07-01T10:00:00Z,30.2583,-88.2131,25.23,1111122 
DISL,ioos:station:DISL:KATA:1,2013-07-01T10:30:00Z,30.2583,-88.2131,24.97,1111122 
DISL,ioos:station:DISL:KATA:1,2013-07-01T11:00:00Z,30.2583,-88.2131,24.66,1111122 
DISL,ioos:station:DISL:KATA:1,2013-07-01T11:30:00Z,30.2583,-88.2131,25.0,1111122 
DISL,ioos:station:DISL:KATA:1,2013-07-01T12:00:00Z,30.2583,-88.2131,24.73,1111122 
DISL,ioos:station:DISL:KATA:1,2013-07-01T12:30:00Z,30.2583,-88.2131,24.73,1111122 
DISL,ioos:station:DISL:KATA:1,2013-07-01T13:00:00Z,30.2583,-88.2131,24.87,1111122 
DISL,ioos:station:DISL:KATA:1,2013-07-01T13:30:00Z,30.2583,-88.2131,25.2,1111122 
DISL,ioos:station:DISL:KATA:1,2013-07-01T14:00:00Z,30.2583,-88.2131,25.57,1111122 
DISL,ioos:station:DISL:KATA:1,2013-07-01T14:30:00Z,30.2583,-88.2131,25.91,1111122 
DISL,ioos:station:DISL:KATA:1,2013-07-01T15:00:00Z,30.2583,-88.2131,26.18,1111122 
DISL,ioos:station:DISL:KATA:1,2013-07-01T15:30:00Z,30.2583,-88.2131,26.68,1111122 
DISL,ioos:station:DISL:KATA:1,2013-07-01T16:00:00Z,30.2583,-88.2131,27.05,1111122 
DISL,ioos:station:DISL:KATA:1,2013-07-01T16:30:00Z,30.2583,-88.2131,27.58,1111122 
DISL,ioos:station:DISL:KATA:1,2013-07-01T17:00:00Z,30.2583,-88.2131,27.86,1111122 
DISL,ioos:station:DISL:KATA:1,2013-07-01T17:30:00Z,30.2583,-88.2131,28.15,1111122 
DISL,ioos:station:DISL:KATA:1,2013-07-01T18:00:00Z,30.2583,-88.2131,28.39,1111122 
DISL,ioos:station:DISL:KATA:1,2013-07-01T18:30:00Z,30.2583,-88.2131,28.45,1111122 
DISL,ioos:station:DISL:KATA:1,2013-07-01T19:00:00Z,30.2583,-88.2131,28.15,1111122 
DISL,ioos:station:DISL:KATA:1,2013-07-01T19:30:00Z,30.2583,-88.2131,28.06,1111122 
DISL,ioos:station:DISL:KATA:1,2013-07-01T20:00:00Z,30.2583,-88.2131,28.2,1111122 
DISL,ioos:station:DISL:KATA:1,2013-07-01T20:30:00Z,30.2583,-88.2131,28.09,1111122 
DISL,ioos:station:DISL:KATA:1,2013-07-01T21:00:00Z,30.2583,-88.2131,27.96,1111122 
DISL,ioos:station:DISL:KATA:1,2013-07-01T21:30:00Z,30.2583,-88.2131,28.13,1111122 
DISL,ioos:station:DISL:KATA:1,2013-07-01T22:00:00Z,30.2583,-88.2131,28.03,1111122 
DISL,ioos:station:DISL:KATA:1,2013-07-01T22:30:00Z,30.2583,-88.2131,28.16,1111122 
DISL,ioos:station:DISL:KATA:1,2013-07-01T23:00:00Z,30.2583,-88.2131,28.37,1111122 
DISL,ioos:station:DISL:KATA:1,2013-07-01T23:30:00Z,30.2583,-88.2131,28.3,1111122 
DISL,ioos:station:DISL:KATA:1,2013-07-02T00:00:00Z,30.2583,-88.2131,28.27,1111122 
DISL,ioos:station:DISL:KATA:1,2013-07-02T00:30:00Z,30.2583,-88.2131,28.47,1111122 
DISL,ioos:station:DISL:KATA:1,2013-07-02T01:00:00Z,30.2583,-88.2131,28.47,1111122 
DISL,ioos:station:DISL:KATA:1,2013-07-02T01:30:00Z,30.2583,-88.2131,28.5,1111122 
DISL,ioos:station:DISL:KATA:1,2013-07-02T02:00:00Z,30.2583,-88.2131,28.4,1111122 
DISL,ioos:station:DISL:KATA:1,2013-07-02T02:30:00Z,30.2583,-88.2131,29.22,1111122 
DISL,ioos:station:DISL:KATA:1,2013-07-02T03:00:00Z,30.2583,-88.2131,28.88,1111122 
DISL,ioos:station:DISL:KATA:1,2013-07-02T03:30:00Z,30.2583,-88.2131,28.61,1111122 
DISL,ioos:station:DISL:KATA:1,2013-07-02T04:00:00Z,30.2583,-88.2131,28.1,1111122 
DISL,ioos:station:DISL:KATA:1,2013-07-02T04:30:00Z,30.2583,-88.2131,28.07,1111122 
DISL,ioos:station:DISL:KATA:1,2013-07-02T05:00:00Z,30.2583,-88.2131,27.9,1111122 
DISL,ioos:station:DISL:KATA:1,2013-07-02T05:30:00Z,30.2583,-88.2131,27.73,1111122 
DISL,ioos:station:DISL:KATA:1,2013-07-02T06:00:00Z,30.2583,-88.2131,27.39,1111122 
DISL,ioos:station:DISL:KATA:1,2013-07-02T06:30:00Z,30.2583,-88.2131,27.29,1111122 
DISL,ioos:station:DISL:KATA:1,2013-07-02T07:00:00Z,30.2583,-88.2131,27.36,1111122 
DISL,ioos:station:DISL:KATA:1,2013-07-02T07:30:00Z,30.2583,-88.2131,27.05,1111122 
DISL,ioos:station:DISL:KATA:1,2013-07-02T08:00:00Z,30.2583,-88.2131,26.92,1111122 
DISL,ioos:station:DISL:KATA:1,2013-07-02T08:30:00Z,30.2583,-88.2131,26.85,1111122 
DISL,ioos:station:DISL:KATA:1,2013-07-02T09:00:00Z,30.2583,-88.2131,26.55,1111122 
DISL,ioos:station:DISL:KATA:1,2013-07-02T09:30:00Z,30.2583,-88.2131,26.18,1111122 
DISL,ioos:station:DISL:KATA:1,2013-07-02T10:00:00Z,30.2583,-88.2131,25.98,1111122 
DISL,ioos:station:DISL:KATA:1,2013-07-02T10:30:00Z,30.2583,-88.2131,25.67,1111122 
DISL,ioos:station:DISL:KATA:1,2013-07-02T11:00:00Z,30.2583,-88.2131,25.64,1111122 
DISL,ioos:station:DISL:KATA:1,2013-07-02T11:30:00Z,30.2583,-88.2131,25.51,1111122 
DISL,ioos:station:DISL:KATA:1,2013-07-02T12:00:00Z,30.2583,-88.2131,25.58,1111122 
DISL,ioos:station:DISL:KATA:1,2013-07-02T12:30:00Z,30.2583,-88.2131,25.44,1111122 
DISL,ioos:station:DISL:KATA:1,2013-07-02T13:00:00Z,30.2583,-88.2131,25.53,1111122 
DISL,ioos:station:DISL:KATA:1,2013-07-02T13:30:00Z,30.2583,-88.2131,25.98,1111122 
DISL,ioos:station:DISL:KATA:1,2013-07-02T14:00:00Z,30.2583,-88.2131,26.38,1111122 
DISL,ioos:station:DISL:KATA:1,2013-07-02T14:30:00Z,30.2583,-88.2131,26.92,1111122 
DISL,ioos:station:DISL:KATA:1,2013-07-02T15:00:00Z,30.2583,-88.2131,27.39,1111122 
DISL,ioos:station:DISL:KATA:1,2013-07-02T15:30:00Z,30.2583,-88.2131,27.93,1111122 
DISL,ioos:station:DISL:KATA:1,2013-07-02T16:00:00Z,30.2583,-88.2131,28.26,1111122 
DISL,ioos:station:DISL:KATA:1,2013-07-02T16:30:00Z,30.2583,-88.2131,28.71,1111122 
DISL,ioos:station:DISL:KATA:1,2013-07-02T17:00:00Z,30.2583,-88.2131,29.31,1111122 
DISL,ioos:station:DISL:KATA:1,2013-07-02T17:30:00Z,30.2583,-88.2131,28.01,1111122 
DISL,ioos:station:DISL:KATA:1,2013-07-02T18:00:00Z,30.2583,-88.2131,28.11,1111122 
DISL,ioos:station:DISL:KATA:1,2013-07-02T18:30:00Z,30.2583,-88.2131,28.05,1111122 
DISL,ioos:station:DISL:KATA:1,2013-07-02T19:00:00Z,30.2583,-88.2131,28.01,1111122 
DISL,ioos:station:DISL:KATA:1,2013-07-02T19:30:00Z,30.2583,-88.2131,28.25,1111122 
DISL,ioos:station:DISL:KATA:1,2013-07-02T20:00:00Z,30.2583,-88.2131,28.28,1111122 
DISL,ioos:station:DISL:KATA:1,2013-07-02T20:30:00Z,30.2583,-88.2131,28.32,1111122 
DISL,ioos:station:DISL:KATA:1,2013-07-02T21:00:00Z,30.2583,-88.2131,28.35,1111122 
DISL,ioos:station:DISL:KATA:1,2013-07-02T21:30:00Z,30.2583,-88.2131,28.42,1111122 
DISL,ioos:station:DISL:KATA:1,2013-07-02T22:00:00Z,30.2583,-88.2131,28.45,1111122 
DISL,ioos:station:DISL:KATA:1,2013-07-02T22:30:00Z,30.2583,-88.2131,28.56,1111122 
DISL,ioos:station:DISL:KATA:1,2013-07-02T23:00:00Z,30.2583,-88.2131,28.83,1111122 
DISL,ioos:station:DISL:KATA:1,2013-07-02T23:30:00Z,30.2583,-88.2131,28.69,1111122 
DISL,ioos:station:DISL:KATA:1,2013-07-03T00:00:00Z,30.2583,-88.2131,28.76,1111122 
DISL,ioos:station:DISL:KATA:1,2013-07-03T00:30:00Z,30.2583,-88.2131,28.7,1111122 
DISL,ioos:station:DISL:KATA:1,2013-07-03T01:00:00Z,30.2583,-88.2131,28.64,1111122 
DISL,ioos:station:DISL:KATA:1,2013-07-03T01:30:00Z,30.2583,-88.2131,28.57,1111122 
DISL,ioos:station:DISL:KATA:1,2013-07-03T02:00:00Z,30.2583,-88.2131,28.48,1111122 
DISL,ioos:station:DISL:KATA:1,2013-07-03T02:30:00Z,30.2583,-88.2131,28.55,1111122 
DISL,ioos:station:DISL:KATA:1,2013-07-03T03:00:00Z,30.2583,-88.2131,28.44,1111122 
DISL,ioos:station:DISL:KATA:1,2013-07-03T03:30:00Z,30.2583,-88.2131,28.55,1111122 
DISL,ioos:station:DISL:KATA:1,2013-07-03T04:00:00Z,30.2583,-88.2131,28.61,1111122 
DISL,ioos:station:DISL:KATA:1,2013-07-03T04:30:00Z,30.2583,-88.2131,28.55,1111122 
DISL,ioos:station:DISL:KATA:1,2013-07-03T05:00:00Z,30.2583,-88.2131,28.41,1111122 
DISL,ioos:station:DISL:KATA:1,2013-07-03T05:30:00Z,30.2583,-88.2131,28.34,1111122 
DISL,ioos:station:DISL:KATA:1,2013-07-03T06:00:00Z,30.2583,-88.2131,28.21,1111122 
DISL,ioos:station:DISL:KATA:1,2013-07-03T06:30:00Z,30.2583,-88.2131,28.17,1111122 
DISL,ioos:station:DISL:KATA:1,2013-07-03T07:00:00Z,30.2583,-88.2131,28.1,1111122 
DISL,ioos:station:DISL:KATA:1,2013-07-03T07:30:00Z,30.2583,-88.2131,27.9,1111122 
DISL,ioos:station:DISL:KATA:1,2013-07-03T08:00:00Z,30.2583,-88.2131,27.36,1111122 
DISL,ioos:station:DISL:KATA:1,2013-07-03T08:30:00Z,30.2583,-88.2131,25.86,1111122 
DISL,ioos:station:DISL:KATA:1,2013-07-03T09:00:00Z,30.2583,-88.2131,26.42,1111122 
DISL,ioos:station:DISL:KATA:1,2013-07-03T09:30:00Z,30.2583,-88.2131,26.62,1111122 
DISL,ioos:station:DISL:KATA:1,2013-07-03T10:00:00Z,30.2583,-88.2131,26.04,1111122 
DISL,ioos:station:DISL:KATA:1,2013-07-03T10:30:00Z,30.2583,-88.2131,26.18,1111122 
DISL,ioos:station:DISL:KATA:1,2013-07-03T11:00:00Z,30.2583,-88.2131,26.49,1111122 
DISL,ioos:station:DISL:KATA:1,2013-07-03T11:30:00Z,30.2583,-88.2131,26.93,1111122 
DISL,ioos:station:DISL:KATA:1,2013-07-03T12:00:00Z,30.2583,-88.2131,26.69,1111122 
DISL,ioos:station:DISL:KATA:1,2013-07-03T12:30:00Z,30.2583,-88.2131,26.38,1111122 
DISL,ioos:station:DISL:KATA:1,2013-07-03T13:00:00Z,30.2583,-88.2131,26.88,1111122 
DISL,ioos:station:DISL:KATA:1,2013-07-03T13:30:00Z,30.2583,-88.2131,27.49,1111122 
DISL,ioos:station:DISL:KATA:1,2013-07-03T14:00:00Z,30.2583,-88.2131,27.15,1111122 
DISL,ioos:station:DISL:KATA:1,2013-07-03T14:30:00Z,30.2583,-88.2131,26.81,1111122 
DISL,ioos:station:DISL:KATA:1,2013-07-03T15:00:00Z,30.2583,-88.2131,26.34,1111122 
DISL,ioos:station:DISL:KATA:1,2013-07-03T15:30:00Z,30.2583,-88.2131,26.72,1111122 
DISL,ioos:station:DISL:KATA:1,2013-07-03T16:00:00Z,30.2583,-88.2131,26.88,1111122 
DISL,ioos:station:DISL:KATA:1,2013-07-03T16:30:00Z,30.2583,-88.2131,27.15,1111122 
DISL,ioos:station:DISL:KATA:1,2013-07-03T17:00:00Z,30.2583,-88.2131,27.83,1111122 
DISL,ioos:station:DISL:KATA:1,2013-07-03T17:30:00Z,30.2583,-88.2131,28.43,1111122 
DISL,ioos:station:DISL:KATA:1,2013-07-03T18:00:00Z,30.2583,-88.2131,28.87,1111122 
DISL,ioos:station:DISL:KATA:1,2013-07-03T18:30:00Z,30.2583,-88.2131,27.14,1111122 
DISL,ioos:station:DISL:KATA:1,2013-07-03T19:00:00Z,30.2583,-88.2131,26.97,1111122 
DISL,ioos:station:DISL:KATA:1,2013-07-03T19:30:00Z,30.2583,-88.2131,25.79,1111122 
DISL,ioos:station:DISL:KATA:1,2013-07-03T20:00:00Z,30.2583,-88.2131,26.38,1111122 
DISL,ioos:station:DISL:KATA:1,2013-07-03T20:30:00Z,30.2583,-88.2131,26.2,1111122 
DISL,ioos:station:DISL:KATA:1,2013-07-03T21:00:00Z,30.2583,-88.2131,26.27,1111122 
DISL,ioos:station:DISL:KATA:1,2013-07-03T21:30:00Z,30.2583,-88.2131,26.51,1111122 
DISL,ioos:station:DISL:KATA:1,2013-07-03T22:00:00Z,30.2583,-88.2131,26.58,1111122 
DISL,ioos:station:DISL:KATA:1,2013-07-03T22:30:00Z,30.2583,-88.2131,26.58,1111122 
DISL,ioos:station:DISL:KATA:1,2013-07-03T23:00:00Z,30.2583,-88.2131,26.61,1111122 
DISL,ioos:station:DISL:KATA:1,2013-07-03T23:30:00Z,30.2583,-88.2131,26.37,1111122 
DISL,ioos:station:DISL:KATA:1,2013-07-04T00:00:00Z,30.2583,-88.2131,26.44,1111122 
DISL,ioos:station:DISL:KATA:1,2013-07-04T00:30:00Z,30.2583,-88.2131,26.3,1111122 
DISL,ioos:station:DISL:KATA:1,2013-07-04T01:00:00Z,30.2583,-88.2131,26.37,1111122 
DISL,ioos:station:DISL:KATA:1,2013-07-04T01:30:00Z,30.2583,-88.2131,26.58,1111122 
DISL,ioos:station:DISL:KATA:1,2013-07-04T02:00:00Z,30.2583,-88.2131,26.86,1111122 
DISL,ioos:station:DISL:KATA:1,2013-07-04T02:30:00Z,30.2583,-88.2131,26.62,1111122 
DISL,ioos:station:DISL:KATA:1,2013-07-04T03:00:00Z,30.2583,-88.2131,26.58,1111122 
DISL,ioos:station:DISL:KATA:1,2013-07-04T03:30:00Z,30.2583,-88.2131,26.55,1111122 
DISL,ioos:station:DISL:KATA:1,2013-07-04T04:00:00Z,30.2583,-88.2131,26.68,1111122 
DISL,ioos:station:DISL:KATA:1,2013-07-04T04:30:00Z,30.2583,-88.2131,26.25,1111122 
DISL,ioos:station:DISL:KATA:1,2013-07-04T05:00:00Z,30.2583,-88.2131,24.93,1111122 
DISL,ioos:station:DISL:KATA:1,2013-07-04T05:30:00Z,30.2583,-88.2131,24.56,1111122 
DISL,ioos:station:DISL:KATA:1,2013-07-04T06:00:00Z,30.2583,-88.2131,24.8,1111122 
DISL,ioos:station:DISL:KATA:1,2013-07-04T06:30:00Z,30.2583,-88.2131,24.87,1111122 
DISL,ioos:station:DISL:KATA:1,2013-07-04T07:00:00Z,30.2583,-88.2131,25.14,1111122 
DISL,ioos:station:DISL:KATA:1,2013-07-04T07:30:00Z,30.2583,-88.2131,25.24,1111122 
DISL,ioos:station:DISL:KATA:1,2013-07-04T08:00:00Z,30.2583,-88.2131,25.24,1111122 
DISL,ioos:station:DISL:KATA:1,2013-07-04T08:30:00Z,30.2583,-88.2131,25.24,1111122 
DISL,ioos:station:DISL:KATA:1,2013-07-04T09:00:00Z,30.2583,-88.2131,25.14,1111122 
DISL,ioos:station:DISL:KATA:1,2013-07-04T09:30:00Z,30.2583,-88.2131,25.27,1111122 
DISL,ioos:station:DISL:KATA:1,2013-07-04T10:00:00Z,30.2583,-88.2131,25.48,1111122 
DISL,ioos:station:DISL:KATA:1,2013-07-04T10:30:00Z,30.2583,-88.2131,25.51,1111122 
DISL,ioos:station:DISL:KATA:1,2013-07-04T11:00:00Z,30.2583,-88.2131,25.44,1111122 
DISL,ioos:station:DISL:KATA:1,2013-07-04T11:30:00Z,30.2583,-88.2131,24.7,1111122 
DISL,ioos:station:DISL:KATA:1,2013-07-04T12:00:00Z,30.2583,-88.2131,24.53,1111122 
DISL,ioos:station:DISL:KATA:1,2013-07-04T12:30:00Z,30.2583,-88.2131,24.43,1111122 
DISL,ioos:station:DISL:KATA:1,2013-07-04T13:00:00Z,30.2583,-88.2131,24.83,1111122 
DISL,ioos:station:DISL:KATA:1,2013-07-04T13:30:00Z,30.2583,-88.2131,25.0,1111122 
DISL,ioos:station:DISL:KATA:1,2013-07-04T14:00:00Z,30.2583,-88.2131,25.64,1111122 
DISL,ioos:station:DISL:KATA:1,2013-07-04T14:30:00Z,30.2583,-88.2131,26.14,1111122 
DISL,ioos:station:DISL:KATA:1,2013-07-04T15:00:00Z,30.2583,-88.2131,26.41,1111122 
DISL,ioos:station:DISL:KATA:1,2013-07-04T15:30:00Z,30.2583,-88.2131,25.52,1111122 
DISL,ioos:station:DISL:KATA:1,2013-07-04T16:00:00Z,30.2583,-88.2131,26.58,1111122 
DISL,ioos:station:DISL:KATA:1,2013-07-04T16:30:00Z,30.2583,-88.2131,26.71,1111122 
DISL,ioos:station:DISL:KATA:1,2013-07-04T17:00:00Z,30.2583,-88.2131,26.16,1111122 
DISL,ioos:station:DISL:KATA:1,2013-07-04T17:30:00Z,30.2583,-88.2131,26.42,1111122 
DISL,ioos:station:DISL:KATA:1,2013-07-04T18:00:00Z,30.2583,-88.2131,26.59,1111122 
DISL,ioos:station:DISL:KATA:1,2013-07-04T18:30:00Z,30.2583,-88.2131,26.86,1111122 
DISL,ioos:station:DISL:KATA:1,2013-07-04T19:00:00Z,30.2583,-88.2131,27.03,1111122 
DISL,ioos:station:DISL:KATA:1,2013-07-04T19:30:00Z,30.2583,-88.2131,27.2,1111122 
DISL,ioos:station:DISL:KATA:1,2013-07-04T20:00:00Z,30.2583,-88.2131,27.38,1111122 
DISL,ioos:station:DISL:KATA:1,2013-07-04T20:30:00Z,30.2583,-88.2131,27.52,1111122 
DISL,ioos:station:DISL:KATA:1,2013-07-04T21:00:00Z,30.2583,-88.2131,27.45,1111122 
DISL,ioos:station:DISL:KATA:1,2013-07-04T21:30:00Z,30.2583,-88.2131,27.24,1111122 
DISL,ioos:station:DISL:KATA:1,2013-07-04T22:00:00Z,30.2583,-88.2131,26.94,1111122 
DISL,ioos:station:DISL:KATA:1,2013-07-04T22:30:00Z,30.2583,-88.2131,26.94,1111122 
DISL,ioos:station:DISL:KATA:1,2013-07-04T23:00:00Z,30.2583,-88.2131,26.77,1111122 
DISL,ioos:station:DISL:KATA:1,2013-07-04T23:30:00Z,30.2583,-88.2131,26.67,1111122 
DISL,ioos:station:DISL:KATA:1,2013-07-05T00:00:00Z,30.2583,-88.2131,26.74,1111122 
DISL,ioos:station:DISL:KATA:1,2013-07-05T00:30:00Z,30.2583,-88.2131,26.92,1111122 
DISL,ioos:station:DISL:KATA:1,2013-07-05T01:00:00Z,30.2583,-88.2131,26.85,1111122 
DISL,ioos:station:DISL:KATA:1,2013-07-05T01:30:00Z,30.2583,-88.2131,26.92,1111122 
DISL,ioos:station:DISL:KATA:1,2013-07-05T02:00:00Z,30.2583,-88.2131,27.16,1111122 
DISL,ioos:station:DISL:KATA:1,2013-07-05T02:30:00Z,30.2583,-88.2131,27.15,1111122 
DISL,ioos:station:DISL:KATA:1,2013-07-05T03:00:00Z,30.2583,-88.2131,27.22,1111122 
DISL,ioos:station:DISL:KATA:1,2013-07-05T03:30:00Z,30.2583,-88.2131,27.15,1111122 
DISL,ioos:station:DISL:KATA:1,2013-07-05T04:00:00Z,30.2583,-88.2131,27.19,1111122 
DISL,ioos:station:DISL:KATA:1,2013-07-05T04:30:00Z,30.2583,-88.2131,27.26,1111122 
DISL,ioos:station:DISL:KATA:1,2013-07-05T05:00:00Z,30.2583,-88.2131,27.12,1111122 
DISL,ioos:station:DISL:KATA:1,2013-07-05T05:30:00Z,30.2583,-88.2131,27.12,1111122 
DISL,ioos:station:DISL:KATA:1,2013-07-05T06:00:00Z,30.2583,-88.2131,27.19,1111122 
DISL,ioos:station:DISL:KATA:1,2013-07-05T06:30:00Z,30.2583,-88.2131,27.22,1111122 
DISL,ioos:station:DISL:KATA:1,2013-07-05T07:00:00Z,30.2583,-88.2131,27.12,1111122 
DISL,ioos:station:DISL:KATA:1,2013-07-05T07:30:00Z,30.2583,-88.2131,27.15,1111122 
DISL,ioos:station:DISL:KATA:1,2013-07-05T08:00:00Z,30.2583,-88.2131,27.19,1111122 
DISL,ioos:station:DISL:KATA:1,2013-07-05T08:30:00Z,30.2583,-88.2131,27.09,1111122 
DISL,ioos:station:DISL:KATA:1,2013-07-05T09:00:00Z,30.2583,-88.2131,27.05,1111122 
DISL,ioos:station:DISL:KATA:1,2013-07-05T09:30:00Z,30.2583,-88.2131,27.05,1111122 
DISL,ioos:station:DISL:KATA:1,2013-07-05T10:00:00Z,30.2583,-88.2131,27.06,1111122 
DISL,ioos:station:DISL:KATA:1,2013-07-05T10:30:00Z,30.2583,-88.2131,26.99,1111122 
DISL,ioos:station:DISL:KATA:1,2013-07-05T11:00:00Z,30.2583,-88.2131,27.09,1111122 
DISL,ioos:station:DISL:KATA:1,2013-07-05T11:30:00Z,30.2583,-88.2131,26.38,1111122 
DISL,ioos:station:DISL:KATA:1,2013-07-05T12:00:00Z,30.2583,-88.2131,25.06,1111122 
DISL,ioos:station:DISL:KATA:1,2013-07-05T12:30:00Z,30.2583,-88.2131,25.92,1111122 
DISL,ioos:station:DISL:KATA:1,2013-07-05T13:00:00Z,30.2583,-88.2131,25.75,1111122 
DISL,ioos:station:DISL:KATA:1,2013-07-05T13:30:00Z,30.2583,-88.2131,25.71,1111122 
DISL,ioos:station:DISL:KATA:1,2013-07-05T14:00:00Z,30.2583,-88.2131,25.34,1111122 
DISL,ioos:station:DISL:KATA:1,2013-07-05T14:30:00Z,30.2583,-88.2131,24.59,1111122 
DISL,ioos:station:DISL:KATA:1,2013-07-05T15:00:00Z,30.2583,-88.2131,25.07,1111122 
DISL,ioos:station:DISL:KATA:1,2013-07-05T15:30:00Z,30.2583,-88.2131,24.56,1111122 
DISL,ioos:station:DISL:KATA:1,2013-07-05T16:00:00Z,30.2583,-88.2131,24.63,1111122 
DISL,ioos:station:DISL:KATA:1,2013-07-05T16:30:00Z,30.2583,-88.2131,24.39,1111122 
DISL,ioos:station:DISL:KATA:1,2013-07-05T17:00:00Z,30.2583,-88.2131,24.36,1111122 
DISL,ioos:station:DISL:KATA:1,2013-07-05T17:30:00Z,30.2583,-88.2131,24.53,1111122 
DISL,ioos:station:DISL:KATA:1,2013-07-05T18:00:00Z,30.2583,-88.2131,24.43,1111122 
DISL,ioos:station:DISL:KATA:1,2013-07-05T18:30:00Z,30.2583,-88.2131,23.78,1111122 
DISL,ioos:station:DISL:KATA:1,2013-07-05T19:00:00Z,30.2583,-88.2131,24.05,1111122 
DISL,ioos:station:DISL:KATA:1,2013-07-05T19:30:00Z,30.2583,-88.2131,23.68,1111122 
DISL,ioos:station:DISL:KATA:1,2013-07-05T20:00:00Z,30.2583,-88.2131,24.33,1111122 
DISL,ioos:station:DISL:KATA:1,2013-07-05T20:30:00Z,30.2583,-88.2131,24.26,1111122 
DISL,ioos:station:DISL:KATA:1,2013-07-05T21:00:00Z,30.2583,-88.2131,24.83,1111122 
DISL,ioos:station:DISL:KATA:1,2013-07-05T21:30:00Z,30.2583,-88.2131,25.04,1111122 
DISL,ioos:station:DISL:KATA:1,2013-07-05T22:00:00Z,30.2583,-88.2131,24.76,1111122 
DISL,ioos:station:DISL:KATA:1,2013-07-05T22:30:00Z,30.2583,-88.2131,25.07,1111122 
DISL,ioos:station:DISL:KATA:1,2013-07-05T23:00:00Z,30.2583,-88.2131,24.87,1111122 
DISL,ioos:station:DISL:KATA:1,2013-07-05T23:30:00Z,30.2583,-88.2131,24.53,1111122 
DISL,ioos:station:DISL:KATA:1,2013-07-06T00:00:00Z,30.2583,-88.2131,24.6,1111122 
DISL,ioos:station:DISL:KATA:1,2013-07-06T00:30:00Z,30.2583,-88.2131,24.46,1111122 
DISL,ioos:station:DISL:KATA:1,2013-07-06T01:00:00Z,30.2583,-88.2131,24.7,1111122 
DISL,ioos:station:DISL:KATA:1,2013-07-06T01:30:00Z,30.2583,-88.2131,24.7,1111122 
DISL,ioos:station:DISL:KATA:1,2013-07-06T02:00:00Z,30.2583,-88.2131,24.43,1111122 
DISL,ioos:station:DISL:KATA:1,2013-07-06T02:30:00Z,30.2583,-88.2131,24.83,1111122 
DISL,ioos:station:DISL:KATA:1,2013-07-06T03:00:00Z,30.2583,-88.2131,24.87,1111122 
DISL,ioos:station:DISL:KATA:1,2013-07-06T03:30:00Z,30.2583,-88.2131,25.17,1111122 
DISL,ioos:station:DISL:KATA:1,2013-07-06T04:00:00Z,30.2583,-88.2131,25.44,1111122 
DISL,ioos:station:DISL:KATA:1,2013-07-06T04:30:00Z,30.2583,-88.2131,25.61,1111122 
DISL,ioos:station:DISL:KATA:1,2013-07-06T05:00:00Z,30.2583,-88.2131,25.75,1111122 
DISL,ioos:station:DISL:KATA:1,2013-07-06T05:30:00Z,30.2583,-88.2131,25.99,1111122 
DISL,ioos:station:DISL:KATA:1,2013-07-06T06:00:00Z,30.2583,-88.2131,26.19,1111122 
DISL,ioos:station:DISL:KATA:1,2013-07-06T06:30:00Z,30.2583,-88.2131,26.01,1111122 
DISL,ioos:station:DISL:KATA:1,2013-07-06T07:00:00Z,30.2583,-88.2131,26.05,1111122 
DISL,ioos:station:DISL:KATA:1,2013-07-06T07:30:00Z,30.2583,-88.2131,25.98,1111122 
DISL,ioos:station:DISL:KATA:1,2013-07-06T08:00:00Z,30.2583,-88.2131,26.21,1111122 
DISL,ioos:station:DISL:KATA:1,2013-07-06T08:30:00Z,30.2583,-88.2131,26.22,1111122 
DISL,ioos:station:DISL:KATA:1,2013-07-06T09:00:00Z,30.2583,-88.2131,26.28,1111122 
DISL,ioos:station:DISL:KATA:1,2013-07-06T09:30:00Z,30.2583,-88.2131,26.32,1111122 
DISL,ioos:station:DISL:KATA:1,2013-07-06T10:00:00Z,30.2583,-88.2131,26.45,1111122 
DISL,ioos:station:DISL:KATA:1,2013-07-06T10:30:00Z,30.2583,-88.2131,24.89,1111122 
DISL,ioos:station:DISL:KATA:1,2013-07-06T11:00:00Z,30.2583,-88.2131,25.82,1111122 
DISL,ioos:station:DISL:KATA:1,2013-07-06T11:30:00Z,30.2583,-88.2131,26.23,1111122 
DISL,ioos:station:DISL:KATA:1,2013-07-06T12:00:00Z,30.2583,-88.2131,26.36,1111122 
DISL,ioos:station:DISL:KATA:1,2013-07-06T12:30:00Z,30.2583,-88.2131,23.57,1111122 
DISL,ioos:station:DISL:KATA:1,2013-07-06T13:00:00Z,30.2583,-88.2131,23.58,1111122 
DISL,ioos:station:DISL:KATA:1,2013-07-06T13:30:00Z,30.2583,-88.2131,24.29,1111122 
DISL,ioos:station:DISL:KATA:1,2013-07-06T14:00:00Z,30.2583,-88.2131,24.53,1111122 
DISL,ioos:station:DISL:KATA:1,2013-07-06T14:30:00Z,30.2583,-88.2131,24.12,1111122 
DISL,ioos:station:DISL:KATA:1,2013-07-06T15:00:00Z,30.2583,-88.2131,23.78,1111122 
DISL,ioos:station:DISL:KATA:1,2013-07-06T15:30:00Z,30.2583,-88.2131,24.09,1111122 
DISL,ioos:station:DISL:KATA:1,2013-07-06T16:00:00Z,30.2583,-88.2131,23.81,1111122 
DISL,ioos:station:DISL:KATA:1,2013-07-06T16:30:00Z,30.2583,-88.2131,24.02,1111122 
DISL,ioos:station:DISL:KATA:1,2013-07-06T17:00:00Z,30.2583,-88.2131,24.09,1111122 
DISL,ioos:station:DISL:KATA:1,2013-07-06T17:30:00Z,30.2583,-88.2131,23.85,1111122 
DISL,ioos:station:DISL:KATA:1,2013-07-06T18:00:00Z,30.2583,-88.2131,23.64,1111122 
DISL,ioos:station:DISL:KATA:1,2013-07-06T18:30:00Z,30.2583,-88.2131,23.92,1111122 
DISL,ioos:station:DISL:KATA:1,2013-07-06T19:00:00Z,30.2583,-88.2131,24.53,1111122 
DISL,ioos:station:DISL:KATA:1,2013-07-06T19:30:00Z,30.2583,-88.2131,24.59,1111122 
DISL,ioos:station:DISL:KATA:1,2013-07-06T20:00:00Z,30.2583,-88.2131,24.52,1111122 
DISL,ioos:station:DISL:KATA:1,2013-07-06T20:30:00Z,30.2583,-88.2131,24.79,1111122 
DISL,ioos:station:DISL:KATA:1,2013-07-06T21:00:00Z,30.2583,-88.2131,24.79,1111122 
DISL,ioos:station:DISL:KATA:1,2013-07-06T21:30:00Z,30.2583,-88.2131,24.96,1111122 
DISL,ioos:station:DISL:KATA:1,2013-07-06T22:00:00Z,30.2583,-88.2131,24.96,1111122 
DISL,ioos:station:DISL:KATA:1,2013-07-06T22:30:00Z,30.2583,-88.2131,25.13,1111122 
DISL,ioos:station:DISL:KATA:1,2013-07-06T23:00:00Z,30.2583,-88.2131,25.2,1111122 
DISL,ioos:station:DISL:KATA:1,2013-07-06T23:30:00Z,30.2583,-88.2131,25.3,1111122 